Location: ČR
(50.0000°N, 15.0000°E)
Time: 12:50:52
(UTC+00:00)

Vanguard 2 - Visible Passes

Search period start: 25 October 2021 00:00
Search period end: 04 November 2021 00:00
Orbit: 553 x 2936 km, 32.9° (Epoch: 24 October)

Date Brightness Start Highest point End Pass type
(mag) Time Alt. Az. Time Alt. Az. Time Alt. Az.
25 Oct 10.0 02:04:35 21° SSE 02:04:35 21° SSE 02:07:43 10° SE visible
25 Oct 9.9 04:05:58 11° SW 04:09:28 15° SSW 04:12:51 10° S visible
26 Oct 9.9 02:21:15 23° S 02:21:15 23° S 02:25:06 10° SE visible
26 Oct 10.1 04:23:32 10° SW 04:26:36 13° SSW 04:29:14 10° S visible
27 Oct 9.9 02:37:55 23° S 02:37:55 23° S 02:42:21 10° SE visible
28 Oct 10.9 00:53:12 11° SE 00:53:12 11° SE 00:53:21 10° ESE visible
28 Oct 9.9 02:54:35 22° SSW 02:54:35 22° SSW 02:59:25 10° SSE visible
29 Oct 10.7 01:09:54 13° SE 01:09:54 13° SE 01:10:48 10° SE visible
29 Oct 10.0 03:11:18 20° SSW 03:11:18 20° SSW 03:16:17 10° SSE visible
30 Oct 10.6 01:26:37 16° SE 01:26:37 16° SE 01:28:07 10° SE visible
30 Oct 10.2 03:28:01 17° SW 03:28:11 17° SSW 03:32:50 10° S visible
31 Oct 10.5 01:43:21 17° SSE 01:43:21 17° SSE 01:45:19 10° SE visible
31 Oct 10.4 03:44:45 14° SW 03:45:11 14° SW 03:48:49 10° SSW visible
01 Nov 10.5 02:00:07 18° SSE 02:00:07 18° SSE 02:02:22 10° SSE visible
01 Nov 11.6 19:33:53 10° S 19:35:44 13° S 19:35:44 13° S visible
02 Nov 10.5 02:16:55 17° S 02:16:55 17° S 02:19:13 10° SSE visible
02 Nov 11.5 19:49:12 10° SSW 19:52:39 16° S 19:52:39 16° S visible
03 Nov 10.5 02:33:45 15° S 02:33:45 15° S 02:35:47 10° S visible
03 Nov 11.5 18:04:30 10° SSE 18:08:08 12° SE 18:08:08 12° SE visible
03 Nov 11.4 20:05:08 10° SSW 20:09:33 18° SSW 20:09:33 18° SSW visible
